NOAA 16 DEB, 41142

Orbit data source: Space-Track

NOAA 16 DEB, 41142 is space debris in SSO originally from a launch on Thu, 21 Sep 2000 UTC launched from the Air Force Western Test Range (AFWTR). Debris objects in space refer to the collection of defunct objects orbiting the Earth. Examples of debris include non-operational satellites, rocket bodies, and fragments generated from explosions, collisions, or faulty payload assembly.

Loading next visibility...
Identifier
41142, 2000-055BZ
Orbit
SSO
Country
Flag of USUS
Related business
Manufacturer
Unknown
Mission
Spacecraft
Bus & Motor
Unknown
Mass
Unknown
Launch date (UTC)
2000-09-21 (25 years ago)
Launch vehicle
Unknown
Launch site
Air Force Western Test Range (AFWTR)
Object type
Payload
Rocket body
Debris
Shape & HBR
Unknown shape, 0.1 m
Radar Cross Section
Small (<0.1 m²)

Expand to show TLE details & history
Last TLE update: 2 days ago

TLE from 2 days ago
0 NOAA 16 DEB
1 41142U 00055BZ  26036.04586294  .00110055  00000-0  86956-2 0  9995
2 41142  98.8457 249.1878 0018117 292.8925  67.0382 14.99994318533801
Epoch: 2026-02-05T01:06Z
TLE epoch observation values (Epoch: 2026-02-05T01:06:02.558Z)
Latitude
-0.00001°
Longitude
97.47342°
Altitude
565.042 km
Speed
7.581 km/s
True Right ascension
16h 36m 45s
True Declination
0° 00' 00"
Sunlit
Object was in daylight at epoch
Visualization orbit readout
Latitude
Unknown
Longitude
Unknown
Altitude
Unknown
Speed
Unknown
Apparent Right ascension
Unknown
Apparent Declination
Unknown
Sunlit
N/A
Visualization observer readout
Local Sidereal Time
12:37:56
Azimuth
Unknown
Elevation
Unknown
Doppler factor
Unknown
Orbital elements
Apogee altitude
576.55 km
Perigee altitude
551.396 km
Semi-major axis
6,942.11 km
Eccentricity
0.00181
Inclination
98.8457°
RAAN
249.1878°
Arg. of periapsis
292.8925°
True anomaly
67.22952°
Mean anomaly
67.0382°
Eccentric anomaly
67.13385°
Mean motion
3.75237 °/min
Orbital period
95.94 mins
BSTAR
0.0086956
Loading maneuver chart data...
Computing Atmospheric mass density...
Loading historical data...
Loading historical data...
Loading historical data...
Loading historical data...
Loading historical data...
Loading historical data...
Loading historical data...

Documentation

Showing up to 5 results
|